GEFSSE_con_cape1000_180.txt.gz
Probability
45 71 100 100 100 100 100 97 97 97 97 100 97 94 90 90 90 87 87 84 84 84 77 77 77 65 68 65 65 68 71 68 71 71 74 84 84 87 84 77 77 68 90
65 77 100 97 97 100 97 97 97 97 94 97 97 97 97 87 87 87 84 81 84 84 84 87 81 68 68 71 65 71 74 68 68 71 71 68 74 90 87 74 71 74 87
65 84 90 97 97 97 97 97 97 97 94 97 97 97 97 94 87 87 90 87 87 84 81 84 81 74 74 77 77 77 77 71 68 71 71 19 48 74 71 71 77 77 84
71 81 94 97 97 97 97 94 97 94 97 97 97 97 97 94 90 90 87 84 84 84 81 81 81 81 74 74 74 68 61 58 68 71 39 26 29 65 71 71 71 74 74
77 94 97 97 97 97 97 97 97 94 94 97 97 97 97 94 94 94 87 90 90 84 81 77 81 81 77 71 68 55 52 52 58 61 39 39 39 71 74 71 71 74 71
90 90 97 97 97 97 97 94 97 97 97 94 94 97 97 94 94 94 94 90 90 84 84 84 87 84 81 74 58 42 39 55 61 39 55 42 42 74 74 74 71 74 68
84 94 97 97 97 97 97 97 100 100 100 100 100 100 100 97 94 94 94 87 84 77 87 81 87 81 77 52 35 19 45 68 65 42 52 48 74 77 77 74 71 71 71
84 90 97 97 97 97 97 97 100 100 100 100 100 100 100 97 94 94 97 84 84 84 87 87 81 71 61 45 23 29 55 65 42 26 42 52 81 81 81 77 74 65 68
84 90 90 90 97 97 97 97 97 97 100 100 100 100 100 100 100 97 97 97 87 77 74 71 68 55 45 35 16 29 52 84 42 29 16 42 77 74 68 77 68 71 65
81 81 87 90 94 94 94 97 94 94 90 97 97 97 97 100 100 94 97 97 90 87 81 68 55 48 42 32 26 45 65 65 23 19 23 58 84 81 81 71 58 58 58
81 84 87 94 97 94 90 94 97 97 90 94 97 97 97 84 77 81 81 90 74 71 68 65 45 45 45 39 39 52 52 26 26 23 29 84 84 81 68 65 61 52 48
81 84 90 94 94 94 90 94 100 94 97 97 94 97 100 97 97 74 84 87 71 71 55 68 61 52 48 29 35 45 35 29 23 16 45 87 87 65 61 61 55 42 45
90 94 90 94 94 94 94 94 97 97 97 97 97 100 100 97 90 84 84 77 87 65 65 65 52 45 35 52 61 55 23 13 10 3 52 81 81 61 58 55 45 42 32
87 90 90 90 94 94 94 94 94 94 94 94 100 100 97 100 94 94 97 94 94 90 97 71 94 74 65 48 52 32 23 13 19 19 52 81 77 65 52 55 45 39 42
97 94 94 94 94 94 94 94 94 94 94 94 100 100 100 97 97 97 100 100 94 100 97 87 90 84 81 65 61 48 48 42 35 26 26 65 68 65 52 45 52 35 42
94 90 94 94 94 94 94 94 94 94 94 94 100 97 100 97 97 100 97 100 100 97 94 94 90 97 90 81 77 77 65 55 58 35 26 48 68 61 61 45 32 39 42
94 94 94 90 90 94 94 94 94 97 94 94 97 97 94 97 97 100 100 100 100 97 97 94 90 90 87 87 81 65 77 71 65 55 48 32 39 61 52 52 52 52 42
97 94 94 90 90 94 97 97 97 97 97 94 97 94 97 97 97 97 100 94 97 97 97 94 97 87 84 84 84 87 81 84 68 65 61 58 42 19 45 55 61 61 61
94 94 94 90 90 94 94 94 97 97 97 94 97 97 90 97 94 100 100 97 97 94 94 77 90 84 77 74 81 87 84 77 77 55 65 65 68 48 35 52 71 65 61
97 97 97 94 94 94 94 94 94 97 94 94 97 97 94 94 87 90 90 90 94 97 94 94 84 87 81 71 42 52 68 68 77 71 74 65 68 58 48 32 55 55 61
97 97 97 97 97 94 94 90 90 90 87 97 97 97 94 94 90 97 97 97 94 97 97 87 81 77 81 77 65 55 61 65 65 77 77 74 68 55 55 58 55 42 39
97 97 97 97 97 97 97 90 94 94 87 84 94 94 94 90 87 77 100 97 94 97 90 81 81 74 71 77 77 55 35 45 68 52 81 84 68 68 55 39 61 58 48
94 97 97 94 94 97 97 90 87 90 84 84 87 90 94 90 94 100 94 94 87 87 90 90 87 81 71 74 74 74 52 32 42 68 68 58 81 71 61 58 61 68 52
97 97 94 94 90 90 90 87 87 81 81 81 84 90 94 87 90 90 94 90 87 87 90 87 90 81 84 77 77 84 81 74 55 39 58 55 65 68 55 39 23 39 39
94 94 90 90 90 90 90 87 87 81 77 77 81 90 94 87 87 87 87 90 87 87 87 84 97 90 90 90 84 81 81 74 71 48 35 48 52 48 48 58 35 32 32
94 90 90 94 94 90 87 81 90 81 81 77 81 90 94 90 81 84 84 87 87 87 84 84 84 84 94 87 87 81 87 74 58 55 45 35 52 58 58 58 48 52 42

GEFSSE_con_cape1000_186.txt.gz
Probability
65 87 94 94 94 94 100 100 100 100 100 100 97 97 90 87 87 84 84 87 84 84 84 84 77 81 77 74 71 71 71 71 84 84 81 81 84 87 90 87 71 61 90
74 87 97 97 97 100 100 100 100 97 97 97 97 97 90 87 87 84 81 84 84 87 84 81 84 81 81 74 77 81 77 77 81 77 81 71 81 87 90 77 65 71 87
74 84 97 97 100 97 97 100 100 97 97 97 97 97 94 90 90 84 84 84 84 84 84 84 84 81 71 77 77 77 81 77 71 71 61 39 68 84 87 84 74 77 81
74 84 94 100 97 97 97 100 100 97 97 97 97 97 94 94 94 90 90 87 87 84 84 74 77 74 71 81 77 81 81 71 65 39 6 16 39 74 77 74 74 77 77
77 90 97 97 100 97 97 100 100 100 97 97 97 97 97 94 94 94 94 94 87 81 81 74 71 65 65 68 74 74 84 81 68 13 3 10 32 74 71 74 74 74 74
81 97 97 97 100 100 97 100 100 97 97 97 97 94 97 97 94 94 94 90 87 87 81 77 77 68 74 71 71 74 77 74 23 6 6 16 39 74 74 71 74 71 74
90 97 97 97 100 100 100 100 100 100 97 97 97 94 97 97 97 94 94 90 84 84 87 84 81 68 61 65 71 68 81 65 6 6 10 16 45 84 74 71 74 71 71
90 94 97 97 97 97 100 100 100 100 97 100 97 97 97 97 94 94 90 90 84 84 81 71 65 55 55 55 55 68 77 42 10 6 13 23 84 84 71 71 71 77 77
90 90 90 94 97 97 100 100 100 100 100 100 100 97 97 94 94 94 87 87 84 81 77 71 61 52 39 42 48 61 61 48 3 6 13 32 84 84 71 68 71 74 74
87 87 87 87 87 90 97 100 100 100 100 100 97 94 94 94 94 94 90 87 84 81 77 58 42 45 35 45 61 84 74 29 3 3 13 65 81 81 74 71 68 68 71
84 84 84 84 77 81 84 90 97 97 97 97 97 97 87 74 74 74 87 97 94 77 68 52 42 39 35 45 61 77 19 0 0 0 13 74 77 81 74 71 65 55 52
81 77 74 71 74 74 84 84 77 77 77 74 81 77 35 32 35 68 94 97 87 71 61 61 68 45 16 6 19 19 0 0 0 0 42 87 84 81 74 77 65 58 52
61 74 71 71 65 61 68 74 68 65 65 61 61 52 35 29 29 39 42 52 39 42 13 19 23 16 6 0 0 0 0 0 0 0 52 90 90 84 65 61 52 48 52
61 65 71 65 58 55 61 71 61 52 55 58 61 42 39 29 23 23 26 19 13 10 6 6 6 6 3 0 0 0 0 0 0 0 32 87 87 84 65 52 45 48 45
61 68 65 65 58 48 52 55 65 61 58 52 55 42 35 32 16 13 13 13 13 3 10 6 3 3 0 0 0 0 0 0 0 0 13 61 81 81 74 48 55 48 52
68 71 65 58 61 52 52 52 55 55 61 48 55 45 42 29 19 16 13 10 10 10 10 6 3 0 0 0 0 3 0 0 0 0 3 48 81 84 77 71 68 58 52
68 65 61 65 58 48 42 48 55 52 52 45 45 48 48 29 23 19 13 19 13 6 6 3 0 0 0 0 0 0 3 3 3 3 3 10 29 74 77 68 71 68 65
74 65 65 74 68 55 65 68 55 58 58 48 55 48 52 48 35 26 16 16 10 10 6 3 3 0 0 0 0 0 0 0 0 0 3 3 10 13 48 71 77 77 74
61 71 71 74 77 68 61 61 55 55 55 52 45 39 42 48 45 29 26 19 10 13 13 13 6 3 0 0 0 0 0 3 0 3 6 3 0 3 6 26 84 74 74
65 68 74 74 77 71 68 61 55 48 45 55 48 35 35 48 45 32 29 26 16 13 16 0 10 10 6 0 3 0 0 0 0 3 6 0 0 0 0 10 19 55 68
71 74 74 74 87 84 77 71 58 58 48 45 52 35 42 45 39 39 29 29 26 16 13 10 10 6 3 3 0 0 0 0 0 0 0 0 3 3 0 0 0 6 19
81 81 84 81 87 87 77 65 58 52 42 42 48 39 42 39 39 42 26 23 16 16 10 10 10 6 3 0 0 0 0 0 0 0 0 0 0 0 3 0 0 0 3
87 81 87 84 87 84 74 55 55 52 45 39 42 45 42 39 35 32 39 29 16 10 3 3 10 10 10 6 3 0 0 0 0 0 0 0 0 0 3 3 0 0 3
77 87 90 77 77 81 77 68 58 55 45 39 39 35 32 35 39 32 39 29 19 10 6 6 10 6 10 6 0 0 0 0 0 0 0 0 0 0 0 3 0 0 6
77 81 84 84 77 74 77 61 48 45 35 32 35 29 39 29 35 35 32 26 23 10 6 10 10 3 6 3 3 0 0 0 0 0 0 0 0 0 0 0 0 0 6
81 81 77 81 81 77 74 65 52 42 32 32 29 32 29 29 32 32 45 29 23 16 10 13 10 6 6 3 3 3 3 3 0 0 0 0 0 0 0 0 0 3 3

GEFSSE_con_cape1000_192.txt.gz
Probability
23 71 90 90 94 90 94 100 100 97 97 94 94 94 90 87 87 87 87 87 87 87 81 81 81 74 71 77 77 74 74 81 81 84 84 77 84 87 87 81 68 52 77
42 74 94 94 90 90 94 100 100 100 97 94 94 94 94 87 87 87 87 90 84 84 84 81 81 81 81 71 77 71 74 77 77 81 74 71 87 84 81 68 68 68 87
58 77 87 90 94 94 94 94 100 100 100 97 94 94 94 87 87 84 84 87 87 87 81 84 77 77 77 74 71 74 77 81 77 74 68 52 65 74 77 74 77 81 81
68 68 81 90 97 97 97 94 94 97 97 94 97 94 94 94 94 84 84 84 87 87 84 84 81 71 68 68 71 71 74 77 71 55 19 42 58 65 77 74 74 77 74
61 61 87 94 100 97 97 100 97 97 97 97 94 94 94 94 97 94 84 84 87 77 81 74 74 68 71 71 68 71 68 68 55 19 23 32 61 68 74 77 77 74 77
58 68 94 94 100 100 100 100 97 97 97 97 97 97 94 94 94 90 84 84 81 87 87 81 71 74 74 71 71 77 81 68 19 13 19 35 55 71 71 74 71 74 71
68 77 94 97 100 100 100 100 100 97 97 97 97 97 97 97 94 87 87 84 81 84 90 77 71 68 65 71 68 71 77 42 6 16 19 35 68 74 71 71 74 74 77
81 84 90 100 97 100 100 100 100 97 97 97 97 97 97 97 94 90 87 87 87 84 74 71 68 58 65 68 68 74 68 29 13 10 19 45 74 81 77 74 77 81 74
81 77 77 84 87 100 100 100 100 97 97 97 97 94 94 94 97 90 90 87 81 77 77 68 61 52 68 68 84 81 52 29 6 13 16 48 81 71 71 77 81 68 74
74 74 71 74 74 84 94 100 100 97 94 97 97 97 97 94 94 87 87 84 77 68 65 55 55 45 58 74 74 77 71 23 6 6 26 55 84 65 65 71 71 81 68
81 74 71 71 68 71 81 90 90 90 94 94 87 87 77 55 58 68 81 77 71 58 48 52 52 68 71 77 81 74 35 0 3 6 32 68 71 58 61 61 68 71 65
81 81 71 68 61 68 81 71 74 81 77 74 68 48 35 32 39 61 77 77 68 61 48 61 65 55 35 32 48 32 0 0 0 13 45 71 81 68 71 77 74 68 68
65 77 65 58 58 55 58 68 58 61 55 45 48 35 26 23 26 23 23 26 29 29 10 10 6 6 3 6 0 0 0 0 3 16 52 71 77 71 61 65 68 61 48
58 68 58 52 48 48 48 65 48 48 48 45 42 29 23 16 16 16 16 16 16 6 6 6 6 0 0 0 0 0 0 3 3 16 48 71 81 71 61 58 55 48 55
45 48 52 48 48 39 39 55 52 45 45 42 39 26 19 16 13 13 13 10 6 10 0 0 0 0 0 0 0 3 3 6 3 6 23 52 74 81 61 52 55 52 52
39 39 42 52 35 29 29 29 35 35 29 29 26 29 29 16 13 13 10 6 6 3 3 0 0 0 0 0 0 0 0 3 3 3 19 42 68 81 74 68 58 48 52
26 32 35 48 35 29 26 19 29 23 16 19 19 23 26 16 13 10 10 6 6 3 3 3 3 3 0 0 0 3 3 6 6 6 6 23 55 68 65 65 71 65 45
26 26 32 42 35 29 19 16 10 16 16 13 19 16 26 23 16 13 13 13 6 3 3 3 0 3 3 0 0 0 0 6 3 3 6 6 23 23 52 68 68 71 58
26 23 29 35 35 29 13 13 6 10 16 13 13 16 19 26 23 16 13 13 10 6 3 3 3 3 3 3 0 3 0 0 6 3 3 3 6 19 23 39 68 71 65
35 35 29 29 29 26 19 10 10 16 16 13 16 26 23 19 29 19 16 13 10 10 6 3 3 0 0 0 3 3 0 0 0 0 3 3 3 3 10 13 26 42 68
42 32 32 32 29 23 16 16 23 23 10 19 23 26 29 35 32 19 23 23 10 6 6 6 0 3 0 0 0 0 0 0 0 0 0 0 0 3 3 6 10 13 32
48 42 45 39 35 29 23 19 19 19 16 19 26 26 32 35 32 32 16 16 10 3 3 3 0 3 3 0 0 0 0 0 0 0 0 0 0 0 3 3 3 3 16
52 45 52 39 42 32 26 23 23 13 16 19 23 23 26 35 39 32 23 13 6 3 3 0 0 3 6 3 0 0 0 0 0 0 0 0 0 6 3 6 6 3 0
48 45 42 39 39 32 26 23 29 35 32 23 23 19 23 23 32 32 26 16 6 0 0 0 3 3 3 6 3 0 0 0 0 3 0 0 0 0 0 3 6 6 3
48 45 48 45 42 32 35 32 32 32 29 19 19 19 19 23 29 29 26 13 10 3 3 0 6 3 3 3 3 0 0 0 0 0 0 0 0 0 0 0 3 3 3
52 48 45 48 42 35 32 32 29 29 23 16 23 16 19 16 26 26 26 19 6 3 3 3 3 3 3 3 0 0 0 0 0 0 0 0 0 0 0 0 0 3 3

GEFSSE_con_cape1000_198.txt.gz
Probability
10 29 81 87 87 94 94 94 94 94 94 94 94 90 90 84 84 81 84 84 74 71 74 77 68 77 77 71 74 74 77 84 81 77 77 74 77 90 77 77 61 42 74
13 29 81 94 94 94 90 90 90 87 90 90 90 90 90 90 90 84 81 81 81 81 81 77 81 77 68 68 68 71 74 81 77 77 77 74 74 87 81 71 74 55 68
16 42 71 90 94 94 94 94 94 90 90 94 94 90 90 97 94 90 87 87 81 84 84 84 81 81 77 77 77 74 81 81 81 68 77 35 52 77 81 77 71 71 74
26 45 68 90 90 94 94 94 90 90 90 94 97 94 97 97 97 87 90 87 87 81 84 81 74 71 74 74 71 74 71 68 52 55 35 32 39 65 81 81 74 74 74
26 48 74 90 90 90 94 94 90 90 90 94 97 97 97 94 90 90 90 90 84 81 81 77 77 71 81 77 71 71 71 55 35 26 39 45 55 65 74 74 71 74 77
19 35 74 87 94 94 94 97 94 94 90 94 97 97 97 97 90 90 87 87 87 94 87 84 74 74 81 74 77 68 55 39 29 23 39 39 45 74 68 68 71 71 77
16 39 61 90 94 94 94 97 97 97 97 97 97 97 97 97 97 97 90 87 90 87 90 74 65 71 71 84 74 52 32 26 6 23 48 52 68 74 71 71 74 71 71
23 42 77 97 97 97 97 100 100 100 97 97 97 97 97 97 97 94 90 90 97 87 74 61 61 68 71 65 77 42 39 13 6 3 29 48 71 77 71 71 77 81 74
32 48 74 81 94 94 97 100 100 100 97 97 97 97 97 97 97 94 90 87 87 87 71 77 58 61 65 74 74 42 23 26 6 13 6 55 61 71 61 65 68 81 87
35 55 74 77 87 84 84 94 97 97 97 97 97 97 94 97 97 94 87 87 77 71 74 65 52 55 58 71 71 52 32 26 10 13 29 42 65 61 52 61 71 77 81
48 61 65 74 84 68 71 90 97 97 97 94 94 87 97 71 55 68 55 74 65 68 65 55 58 58 68 55 68 52 32 19 16 16 32 42 52 55 52 58 61 65 71
52 61 68 65 65 58 61 94 87 84 90 90 90 81 71 81 71 58 71 74 74 65 61 52 48 55 39 42 45 52 39 13 16 19 35 68 58 45 52 58 58 52 48
65 58 65 61 68 58 71 81 84 87 94 87 87 77 81 71 65 55 65 68 65 48 52 45 35 32 29 42 39 23 19 23 26 29 42 74 65 58 52 65 61 65 58
65 55 61 68 81 74 71 81 77 81 87 77 90 65 61 65 61 52 65 55 65 58 61 39 58 42 35 32 29 16 13 10 32 26 65 68 71 58 48 55 52 52 58
68 68 74 74 77 87 94 87 74 71 68 77 87 71 68 58 61 58 74 65 42 58 55 58 55 52 52 48 39 26 23 13 10 23 65 61 61 65 52 48 45 39 39
74 74 77 74 87 97 94 90 84 68 94 77 74 65 74 65 71 68 65 74 48 58 58 58 45 61 55 58 42 42 42 19 26 23 32 55 48 58 58 48 42 48 42
71 74 84 84 94 94 90 87 74 71 81 81 87 84 77 77 90 90 68 71 61 65 71 61 52 48 61 55 55 42 39 48 26 23 23 39 52 48 55 52 52 45 52
81 87 90 87 97 97 97 97 77 77 81 84 87 94 77 84 84 90 77 65 74 65 61 55 48 45 52 52 55 48 45 58 52 32 29 32 42 19 55 61 58 58 48
90 97 97 94 94 97 97 97 90 90 90 84 77 81 84 87 87 84 81 84 84 65 58 45 52 55 58 55 52 58 39 52 58 29 29 32 35 42 42 68 61 71 58
97 97 97 97 97 97 97 97 97 94 90 90 81 84 84 87 84 84 81 87 77 55 71 71 77 71 58 58 16 32 39 39 39 39 32 23 42 35 29 29 61 58 65
97 97 97 97 97 97 97 97 97 97 90 90 84 77 77 84 81 77 65 90 81 65 77 61 65 61 45 55 39 48 32 32 35 42 42 32 29 39 39 48 55 55 58
97 97 97 97 97 97 90 94 94 94 87 90 84 84 81 74 81 65 77 84 81 90 84 77 84 61 45 42 48 45 45 29 58 10 32 39 29 29 32 42 55 65 58
97 97 97 97 97 97 94 90 90 90 90 90 84 87 77 81 81 81 81 84 81 74 77 87 90 71 71 45 39 45 42 35 42 26 35 19 48 45 39 42 48 55 61
97 97 97 97 97 97 90 87 87 87 84 90 90 84 84 77 77 81 87 84 81 74 87 74 55 77 84 55 55 61 32 42 35 39 19 23 42 55 39 23 19 45 48
97 97 97 97 97 94 87 84 87 81 90 84 87 84 81 74 81 77 87 87 90 81 84 87 87 87 74 65 48 45 42 48 35 26 23 29 32 29 32 39 42 45 39
97 97 97 100 97 94 90 84 87 84 84 84 81 77 81 77 74 74 87 87 90 81 81 90 94 84 84 74 65 39 48 42 45 35 32 35 42 32 26 35 32 29 32

GEFSSE_con_cape1000_204.txt.gz
Probability
29 48 97 94 90 87 90 90 84 84 87 84 87 87 87 81 81 74 77 74 68 68 68 68 68 71 68 71 74 71 74 74 77 74 77 81 87 87 81 81 77 61 90
32 68 94 94 94 90 90 87 90 87 84 87 90 90 90 90 87 77 77 81 71 71 74 71 71 74 71 74 74 74 77 77 77 74 74 81 81 84 77 74 74 71 90
39 71 84 94 94 90 90 90 90 90 90 87 90 90 94 90 87 84 81 81 77 77 84 81 77 74 74 68 68 68 65 68 74 71 71 19 52 77 77 74 74 81 77
35 55 81 94 94 94 90 90 90 90 90 90 90 90 90 94 94 84 81 84 84 81 74 74 74 71 71 71 68 65 65 61 52 61 29 10 26 74 77 77 77 77 71
48 65 87 94 94 94 90 90 90 90 90 90 94 94 94 94 94 90 87 84 77 81 77 74 74 71 61 55 52 42 39 42 52 52 29 35 48 74 77 71 81 71 71
45 58 87 90 90 94 94 90 90 90 90 94 94 94 94 94 94 87 87 84 87 94 87 84 77 71 65 55 48 48 42 42 58 29 39 32 61 77 74 71 71 77 77
32 52 81 90 90 90 90 94 90 90 94 94 94 97 97 97 97 90 90 87 90 87 84 74 68 61 61 52 32 32 35 55 52 35 42 48 68 81 74 68 71 74 74
42 52 77 94 94 94 90 90 97 90 94 94 97 97 97 97 97 90 94 90 87 77 71 74 68 52 45 35 35 35 52 52 29 32 35 48 74 77 71 77 74 71 68
45 61 65 81 94 94 94 94 94 94 97 97 97 97 97 97 97 94 90 87 77 71 77 74 61 52 42 42 39 42 68 84 35 29 19 45 65 71 68 77 77 71 74
55 58 71 74 87 81 84 90 100 97 97 94 94 94 97 97 94 90 90 84 74 74 74 65 52 52 45 32 26 45 68 61 19 23 19 45 71 68 61 61 61 61 71
65 68 68 77 77 71 68 90 94 94 94 94 90 90 87 77 58 65 71 74 65 68 61 55 48 45 39 29 29 48 61 35 23 16 23 58 74 65 52 55 61 61 61
65 68 71 77 74 74 71 94 90 90 94 97 94 94 87 87 71 48 65 68 68 61 61 55 58 48 52 35 35 58 45 23 19 19 29 77 68 52 45 48 58 65 55
65 68 65 81 94 81 94 90 90 94 100 90 94 94 84 81 71 52 58 48 71 61 65 71 74 58 55 65 61 55 45 16 10 13 39 81 77 48 39 52 61 58 55
58 58 68 71 97 97 97 97 97 94 97 90 94 94 94 94 90 77 84 81 81 77 87 71 84 77 68 52 52 45 29 23 45 29 48 84 74 61 39 55 65 55 55
77 74 90 97 97 97 97 97 94 97 84 90 94 94 94 90 90 87 97 97 81 77 81 90 84 87 68 71 61 35 42 32 45 39 42 74 81 71 55 42 45 45 48
74 81 87 97 97 97 97 97 97 97 97 87 94 94 94 94 97 94 97 94 90 87 87 87 84 87 90 90 77 61 55 39 52 48 42 61 84 84 68 45 39 35 42
81 87 94 97 97 97 97 97 97 97 87 94 94 94 94 94 94 90 90 94 90 94 94 97 90 90 87 87 77 68 68 65 52 58 48 35 35 74 71 65 48 42 45
90 97 94 94 97 97 97 97 97 97 94 97 94 90 94 94 94 94 90 90 90 87 90 94 87 84 87 87 87 71 74 74 55 52 52 71 48 29 58 65 71 68 55
97 94 97 97 97 97 97 97 97 97 97 94 94 94 94 94 97 90 87 94 90 90 87 71 87 81 77 74 68 71 71 61 71 52 58 55 74 65 42 55 81 77 65
97 94 97 97 97 97 97 97 97 97 97 94 94 94 94 94 90 90 94 94 87 87 87 87 87 84 81 81 42 39 58 65 68 68 58 52 74 55 55 39 45 58 77
97 97 97 97 97 97 97 97 97 94 94 90 94 94 90 94 94 94 87 84 87 87 84 87 84 77 84 90 81 61 71 61 65 65 68 55 52 55 71 65 48 48 39
97 97 97 97 97 97 97 97 97 94 94 90 87 90 94 90 90 77 84 87 90 87 87 87 87 94 84 74 81 71 61 58 68 39 55 58 52 74 71 48 74 77 55
97 97 97 97 97 97 97 97 97 94 94 90 87 90 90 87 87 81 87 90 94 87 87 87 87 90 87 77 81 74 61 39 42 58 52 52 65 65 52 65 68 58 55
97 97 97 97 97 97 97 97 97 94 90 87 90 90 94 84 81 84 90 87 90 90 87 84 87 87 84 87 81 81 68 58 42 48 61 61 58 61 58 35 39 55 55
97 97 97 97 97 97 97 97 94 97 97 94 94 94 94 84 84 81 90 90 90 87 90 87 94 90 90 90 81 81 71 74 58 55 42 58 58 61 61 61 55 61 58
100 100 97 100 100 100 100 100 97 97 97 97 97 94 87 87 84 81 87 94 90 90 90 90 90 94 94 87 87 81 74 71 65 65 45 55 45 48 55 58 45 42 61

GEFSSE_con_cape1000_210.txt.gz
Probability
45 81 94 94 94 94 90 94 90 90 90 87 87 84 84 81 81 77 77 74 74 71 77 84 81 81 77 77 81 81 81 77 84 87 84 77 81 84 90 84 74 58 84
55 77 97 97 94 90 87 90 90 87 90 87 84 81 81 81 81 84 84 77 71 71 81 84 81 77 77 77 77 87 81 81 81 84 71 77 77 84 84 84 77 68 87
55 77 90 94 94 90 87 90 90 90 90 90 87 84 84 84 84 81 84 84 84 84 81 74 74 68 71 65 68 74 74 77 74 74 68 26 65 84 84 84 84 81 81
58 68 87 94 94 94 94 94 90 90 87 90 90 87 84 84 84 87 87 87 84 81 71 71 71 65 65 68 71 74 68 65 71 52 0 13 29 77 84 87 77 77 81
55 74 90 94 94 94 94 94 90 90 90 90 90 90 90 87 84 84 87 84 87 81 77 74 68 65 61 68 65 65 68 68 65 10 0 6 35 81 81 77 74 77 81
65 77 90 94 94 94 90 90 90 90 94 94 90 90 90 90 90 84 87 90 87 81 74 68 58 61 65 61 61 61 65 58 13 3 3 13 48 81 81 71 74 77 81
68 71 87 90 94 94 90 90 90 90 94 94 94 94 94 97 94 94 87 84 87 84 74 71 55 61 52 45 45 68 58 48 6 0 6 16 61 81 81 77 77 68 71
65 71 87 90 90 90 90 90 94 94 94 94 97 97 94 94 97 90 90 87 84 74 71 65 55 45 48 52 55 58 74 45 13 6 10 35 77 81 77 81 84 84 74
65 68 74 81 87 87 90 94 97 94 94 94 94 94 94 90 94 90 87 84 81 81 77 58 48 42 42 65 65 68 74 48 3 3 13 45 81 77 74 74 77 77 68
52 65 65 71 74 74 90 94 90 90 94 97 94 97 97 90 90 90 87 81 84 77 68 58 55 45 45 68 74 74 71 26 3 3 16 58 81 77 71 74 71 74 74
45 52 58 61 58 65 74 87 84 84 90 94 90 90 74 48 45 61 71 77 74 71 65 58 48 45 42 45 68 81 26 3 0 3 16 71 77 77 68 77 77 74 81
45 39 45 45 48 55 65 71 68 71 68 58 65 55 39 26 29 48 71 74 71 71 61 61 55 42 19 6 19 19 3 6 6 3 32 81 84 74 71 71 74 71 68
39 48 42 45 45 39 48 58 52 55 55 48 45 48 29 26 29 23 19 39 39 42 16 29 26 19 13 3 0 0 0 3 3 6 42 81 84 81 71 65 65 65 68
32 42 42 42 39 39 48 65 55 48 42 45 35 26 19 13 10 10 10 13 13 16 13 6 10 10 3 3 6 6 3 3 6 6 35 77 84 81 68 65 61 61 58
32 45 48 35 45 42 29 48 55 48 39 39 35 35 16 10 16 16 16 13 16 13 13 10 13 13 6 6 6 3 3 3 3 10 26 68 81 84 65 71 65 61 61
35 39 35 35 45 45 42 39 48 45 42 29 29 35 32 10 3 13 23 6 10 10 10 13 6 6 6 3 3 3 3 3 6 6 19 55 84 81 74 74 68 68 61
32 42 39 42 48 55 48 42 45 55 39 42 29 32 35 19 16 10 10 13 6 6 10 10 6 3 3 3 6 6 3 6 3 0 10 13 32 77 81 77 77 71 61
39 45 42 68 61 58 48 42 42 42 45 42 29 35 45 32 19 19 19 26 6 6 6 10 3 3 6 6 6 6 3 0 0 0 6 10 10 19 55 74 81 77 68
42 45 58 68 71 65 55 65 52 39 35 45 26 35 35 45 45 29 19 23 23 10 6 19 6 3 6 6 10 6 0 0 3 0 3 6 10 10 13 35 77 84 68
45 48 58 68 71 68 61 52 42 42 39 42 42 42 45 52 55 29 26 32 23 16 6 6 6 6 6 6 10 3 0 0 3 3 3 3 6 6 10 10 16 48 74
58 55 61 74 74 71 65 55 45 52 39 35 45 48 52 48 48 32 39 23 29 19 10 6 6 6 10 6 3 3 3 3 6 3 3 3 6 6 6 6 10 13 23
68 61 71 74 81 81 74 61 45 48 48 35 39 45 52 55 52 48 35 23 19 16 10 10 10 10 13 3 3 0 0 0 0 0 0 0 3 3 10 6 6 10 3
74 71 77 77 81 87 84 68 61 58 52 52 45 52 48 52 48 35 29 29 16 19 16 10 13 13 10 3 3 0 0 0 0 0 0 0 0 3 6 10 6 3 0
77 81 84 90 84 87 84 71 68 61 52 55 45 52 48 55 48 42 32 32 16 26 23 19 16 10 6 6 6 3 0 0 0 0 0 0 3 3 3 6 6 6 6
84 84 87 90 87 90 81 71 74 65 52 52 61 61 55 55 58 55 42 32 35 35 26 26 19 16 6 6 6 3 3 0 0 0 0 0 0 3 3 3 3 0 0
81 81 84 87 87 81 84 74 71 71 58 55 58 58 55 52 45 45 48 42 39 35 35 26 26 23 16 13 10 10 6 6 0 0 0 0 0 0 0 0 0 0 0

GEFSSE_con_cape1000_216.txt.gz
Probability
19 52 81 90 90 87 84 87 84 87 87 87 87 87 77 77 77 77 74 74 77 74 81 74 71 77 77 71 71 77 81 77 77 81 84 77 81 87 90 84 71 61 84
35 55 90 94 90 84 94 94 90 87 87 90 84 87 84 71 68 68 68 74 81 81 68 68 77 81 81 81 77 84 87 81 84 81 87 74 81 84 94 81 71 65 81
48 61 74 94 94 87 90 90 90 90 87 84 84 84 84 84 81 77 71 74 71 74 74 74 74 71 74 81 84 81 84 81 87 81 77 48 61 77 84 81 74 81 81
55 58 71 94 94 94 87 90 90 90 90 87 87 84 84 84 84 84 77 71 74 77 74 74 77 71 68 71 71 74 81 84 81 55 19 29 39 68 87 81 77 77 81
45 61 74 94 94 94 94 97 94 90 87 84 84 84 84 87 81 77 77 71 74 71 84 81 74 71 68 61 65 74 74 74 52 16 10 32 65 74 81 74 77 74 74
48 65 77 90 94 90 94 94 94 94 90 87 84 84 84 84 74 77 77 77 81 84 71 71 71 74 71 65 65 77 81 65 10 6 10 32 65 77 81 87 81 77 77
48 61 77 90 90 90 90 94 94 94 90 94 90 90 87 87 84 84 77 74 81 81 71 68 61 65 68 71 71 68 68 55 6 10 16 39 68 81 77 71 74 77 77
58 61 77 87 90 87 94 87 94 94 90 94 90 94 94 87 84 81 77 81 77 74 77 71 71 68 55 68 68 71 65 32 13 13 23 42 74 77 74 77 77 74 81
61 58 61 61 77 77 87 84 87 94 94 90 90 94 90 90 87 77 77 81 77 71 65 68 71 61 58 61 65 61 58 42 10 13 16 48 74 81 77 68 74 77 77
55 55 55 58 58 65 71 81 87 97 94 97 90 87 87 84 74 71 84 81 71 71 68 61 65 61 65 65 68 55 61 32 10 16 26 58 74 71 74 74 68 68 68
42 42 39 45 48 55 65 77 74 84 90 87 81 81 68 32 35 55 74 84 74 71 68 68 65 68 58 61 65 65 35 10 6 13 39 71 71 68 61 68 61 68 68
39 35 32 35 39 45 68 58 55 58 58 52 35 35 16 16 32 48 68 81 71 65 58 61 58 42 16 19 29 16 10 3 10 19 39 68 68 61 58 65 61 55 58
19 29 26 29 26 32 35 35 35 35 35 26 26 19 6 3 10 19 16 26 23 26 13 16 16 6 6 6 6 3 6 6 13 23 42 71 71 65 55 68 68 61 61
10 19 19 23 23 32 23 29 32 26 29 23 23 16 6 0 0 3 3 3 6 3 3 6 3 3 3 3 3 6 13 10 6 16 39 58 65 71 71 71 61 61 61
6 10 13 13 10 10 0 16 26 19 16 10 13 16 0 0 0 0 0 3 3 3 3 3 6 6 3 6 10 6 10 3 10 13 29 52 61 71 68 61 58 55 55
3 6 6 13 10 10 3 6 10 13 13 6 6 16 6 0 0 0 0 0 0 3 3 6 6 3 3 6 3 6 3 10 6 10 23 42 55 68 74 65 61 42 45
3 3 3 10 10 6 10 13 6 6 6 6 6 13 3 3 0 3 0 0 6 6 6 6 6 3 3 3 3 3 3 6 6 6 16 29 39 58 68 71 65 55 55
6 10 10 39 13 10 16 13 10 6 3 6 3 6 10 6 3 3 0 0 0 3 6 3 3 3 3 6 3 3 3 3 6 6 10 19 26 26 52 65 71 71 65
13 13 10 19 16 16 16 16 10 6 3 3 3 6 10 13 6 3 6 6 3 0 3 10 3 3 6 6 6 3 3 3 0 0 6 10 10 13 23 35 65 71 68
16 16 19 16 16 19 16 16 19 10 3 10 6 6 10 16 10 10 6 6 10 3 3 3 3 3 6 6 6 6 3 3 3 3 3 6 10 10 10 13 29 42 65
16 16 19 29 19 19 16 23 19 16 13 10 3 13 16 13 23 10 10 6 6 10 6 3 3 3 6 6 3 3 3 3 3 3 3 6 6 6 10 10 16 19 29
16 16 19 32 26 26 26 26 23 16 10 10 6 10 16 23 19 19 13 6 6 6 10 3 6 6 6 3 3 0 0 0 0 0 0 0 3 6 6 6 13 16 19
19 23 35 35 32 26 26 19 16 10 13 10 10 16 13 26 26 19 13 13 10 10 6 6 10 6 6 3 3 0 0 0 0 0 0 0 0 6 6 6 10 10 6
32 32 29 35 35 29 26 23 19 26 29 13 10 13 19 32 26 19 23 13 13 10 10 10 13 6 3 6 6 3 0 0 0 0 0 0 0 3 3 6 6 10 6
39 29 29 39 39 35 29 29 23 23 13 13 10 10 13 19 23 26 26 16 13 10 16 16 16 13 3 6 3 3 3 0 0 0 0 0 0 0 0 0 3 3 3
45 52 45 45 42 39 39 23 26 26 16 13 13 13 13 16 23 23 23 19 19 16 13 13 13 13 10 6 3 3 6 6 3 0 0 0 3 3 0 0 0 0 3

GEFSSE_con_cape1000_222.txt.gz
Probability
6 19 71 84 81 84 87 84 77 77 77 84 84 81 87 81 77 74 74 68 65 74 65 65 68 68 71 71 71 81 84 87 87 77 81 81 81 77 74 74 81 58 81
6 16 77 81 84 81 84 84 84 77 87 81 81 81 81 81 77 68 65 65 65 71 71 71 74 71 74 77 77 81 77 77 84 77 87 77 77 71 68 65 65 71 84
16 23 58 81 84 84 84 84 84 84 81 81 81 87 84 74 74 65 68 71 71 71 71 71 71 68 68 74 77 84 84 81 71 74 74 35 55 74 77 74 74 81 81
19 29 55 87 87 84 81 84 81 84 84 84 84 84 84 81 71 71 65 68 71 77 77 74 71 68 68 77 77 77 77 71 61 48 29 23 45 68 77 81 77 77 74
32 42 68 87 87 90 87 90 87 84 84 84 84 77 84 87 71 71 77 74 84 81 81 74 71 68 71 71 68 74 74 68 39 32 32 39 52 74 74 71 74 74 77
35 45 61 87 87 90 84 90 90 84 84 84 81 77 81 77 71 71 74 77 81 81 71 74 77 74 77 61 58 65 58 39 42 19 35 35 61 71 68 68 74 74 74
26 39 58 87 87 87 87 87 87 81 81 81 81 77 84 84 74 77 77 77 74 74 74 71 71 71 68 65 61 58 52 32 13 29 32 39 71 71 68 71 74 68 77
26 39 71 77 81 87 87 87 87 84 87 84 84 84 81 81 77 77 77 71 74 68 74 65 65 65 61 71 65 61 42 23 10 10 23 42 71 68 71 71 68 71 68
26 35 61 61 74 84 87 87 87 87 87 90 84 84 84 81 77 77 77 74 71 65 68 71 61 65 52 55 55 58 35 35 6 10 10 35 55 65 68 71 68 65 61
32 42 52 58 71 74 74 84 84 87 87 87 87 84 81 77 74 74 77 77 68 68 55 55 55 58 58 55 52 48 32 19 6 10 19 39 71 55 55 65 61 61 55
39 52 45 48 55 58 61 74 81 81 87 84 84 81 81 61 48 61 58 71 65 58 61 65 58 58 55 52 55 45 42 23 13 10 19 52 74 52 55 65 58 52 55
32 48 45 48 45 42 45 77 74 74 81 77 84 84 77 77 61 48 65 74 65 55 58 52 48 55 58 52 39 42 39 16 16 13 29 68 61 52 55 58 52 52 45
35 39 42 55 52 45 45 55 65 71 77 74 81 84 84 61 55 39 52 74 68 61 55 48 45 42 35 42 39 26 23 13 13 13 23 58 68 61 45 55 58 48 52
32 32 32 55 74 74 58 52 68 48 61 55 77 71 65 65 61 52 61 48 55 68 55 42 55 42 45 39 32 23 16 13 16 19 61 48 61 55 55 65 61 58 55
35 32 52 65 77 81 84 84 61 65 55 58 77 74 61 55 61 52 74 74 45 42 52 58 48 55 58 48 39 29 26 16 19 13 42 48 52 58 55 52 52 58 61
39 45 58 71 71 84 84 84 81 65 87 74 71 74 74 65 68 68 77 81 55 55 52 58 48 65 58 45 35 35 32 26 19 26 35 48 55 65 65 55 48 42 48
48 52 61 74 74 84 81 77 65 68 74 71 84 81 81 74 74 71 61 55 55 68 71 68 68 58 61 48 48 29 35 32 35 35 35 39 52 45 68 58 45 42 42
58 68 71 52 68 84 90 87 65 68 74 74 77 84 77 77 77 77 65 55 71 61 68 61 52 55 65 52 39 32 39 52 39 35 35 39 52 35 55 55 55 52 52
71 81 87 84 81 87 90 90 87 87 87 84 81 84 84 74 74 77 84 81 74 71 65 42 61 58 58 52 48 55 52 58 52 42 45 42 45 55 55 55 58 61 55
74 90 87 90 87 90 90 90 90 87 84 87 84 90 84 81 81 84 84 77 68 71 74 74 74 74 68 65 32 35 39 42 35 39 42 42 48 52 48 48 58 55 65
84 90 87 90 87 87 87 87 90 87 81 84 87 87 84 84 84 77 71 84 81 81 74 71 65 58 61 65 42 35 32 26 39 52 42 32 39 48 58 61 61 58 58
90 90 90 90 87 87 90 94 94 97 87 81 81 87 84 84 87 74 81 81 77 84 81 77 74 65 52 65 48 32 23 26 55 16 48 48 39 45 45 39 65 68 61
94 97 94 94 90 90 90 90 94 94 94 84 87 87 90 87 84 81 77 77 84 77 77 81 81 77 55 55 42 39 35 26 29 23 45 42 52 58 48 42 48 58 68
94 97 97 100 97 94 94 90 94 94 84 84 90 87 87 87 81 77 77 77 77 77 84 74 68 81 81 71 61 68 55 45 39 16 26 26 39 48 55 29 35 58 61
94 94 94 100 94 94 90 90 90 87 84 81 77 84 81 77 77 74 74 77 81 71 74 71 74 77 77 71 61 68 58 68 45 48 35 42 42 35 42 48 55 42 48
90 90 90 97 90 94 90 90 90 90 84 81 84 84 84 81 81 77 74 71 71 68 74 71 77 68 77 77 77 74 74 58 61 52 42 52 45 39 39 55 48 52 48

GEFSSE_con_cape1000_228.txt.gz
Probability
13 35 81 81 77 74 81 74 77 74 77 81 74 71 71 71 71 61 65 65 65 61 71 68 65 65 71 74 74 77 77 90 84 81 81 87 84 77 74 68 71 71 77
16 48 77 81 77 74 74 77 81 81 77 84 87 84 68 68 61 61 58 58 61 58 61 71 68 77 74 68 61 65 74 90 81 77 74 74 77 77 77 71 68 61 77
23 45 68 81 77 74 74 74 74 77 77 84 84 77 71 68 61 58 58 65 61 65 65 68 71 74 71 71 71 68 71 77 81 77 77 29 52 71 71 74 74 71 74
23 55 68 81 77 74 77 74 74 74 77 81 77 68 71 61 55 55 58 61 68 71 65 68 81 74 74 71 65 65 58 58 65 68 42 13 35 61 68 74 77 71 71
45 61 71 77 74 74 77 77 77 74 74 77 81 77 68 61 65 68 65 68 71 71 68 71 77 77 68 58 55 48 39 42 58 45 45 35 48 68 71 71 74 68 68
35 61 68 84 77 77 81 77 74 74 74 77 77 77 68 61 65 68 68 71 74 71 68 74 74 77 74 55 35 35 35 42 45 29 48 32 55 61 68 68 65 65 68
32 52 65 87 81 77 81 81 81 77 74 77 77 77 71 68 71 68 65 71 71 74 74 71 74 71 52 35 32 32 32 55 48 45 58 52 58 71 65 68 65 65 65
32 42 65 87 87 84 84 84 81 81 81 81 81 81 81 81 81 77 71 71 74 74 74 71 71 65 58 45 35 32 55 55 29 29 58 52 65 68 68 58 61 68 61
39 48 58 71 74 84 84 84 81 87 84 84 81 81 84 81 77 77 77 65 65 74 71 65 55 55 52 52 45 39 61 81 42 29 35 39 68 68 61 55 58 61 58
45 55 58 61 74 71 68 84 81 81 81 84 77 84 84 81 77 77 81 71 58 55 55 52 52 45 35 45 45 42 61 68 26 23 19 45 74 65 55 48 48 52 58
45 52 58 65 65 61 55 61 81 81 81 77 81 81 84 81 74 71 71 71 55 58 61 45 55 55 52 42 42 45 52 35 26 19 23 58 71 61 55 42 39 42 45
45 39 45 55 61 58 68 77 74 74 81 84 84 87 81 84 81 45 65 74 68 65 61 61 58 55 52 39 39 55 35 35 10 26 13 74 74 61 58 58 45 45 42
42 42 39 58 74 55 74 77 81 77 81 81 84 90 84 81 74 65 65 71 74 74 55 65 55 52 48 55 45 39 42 19 10 16 29 74 71 58 48 55 48 42 39
52 39 48 61 74 84 77 77 77 81 81 81 84 84 87 87 84 81 84 74 77 77 81 77 81 71 65 52 48 35 35 23 23 32 39 71 81 65 55 58 55 39 45
55 58 65 81 87 87 94 90 74 81 81 77 84 87 87 87 84 74 81 87 84 84 84 84 87 87 74 68 55 39 42 19 26 26 29 58 74 71 55 65 61 52 45
48 55 71 74 90 90 90 94 90 84 87 81 87 87 90 87 90 87 84 87 87 84 84 81 90 90 87 74 61 58 61 39 35 39 26 39 55 68 58 55 61 55 48
55 65 77 90 94 94 90 94 87 87 74 87 94 94 90 90 90 87 84 94 90 87 90 90 87 77 90 81 61 61 58 52 52 39 42 42 42 58 65 55 52 48 45
74 90 87 61 94 97 97 94 90 87 90 94 94 94 87 90 94 94 87 87 94 90 87 84 94 84 74 81 77 71 71 71 52 55 45 55 42 32 52 65 61 58 52
84 90 87 90 90 94 94 94 90 90 90 94 90 97 90 87 94 90 90 90 94 87 87 71 90 87 81 74 71 77 65 61 71 48 48 55 58 52 39 52 77 68 52
87 90 94 97 97 97 90 94 90 90 90 97 94 94 90 90 90 87 90 90 90 90 84 84 81 90 87 84 55 55 65 74 74 74 58 55 55 45 39 26 39 52 61
90 97 100 97 97 97 94 90 94 94 94 94 94 94 90 94 84 94 77 90 90 84 84 74 74 81 84 81 71 61 68 58 65 68 74 58 52 55 58 45 39 35 39
94 100 100 100 97 97 94 94 94 94 94 90 94 94 94 90 87 77 81 77 87 84 87 74 74 77 71 77 74 58 52 52 65 48 65 61 58 55 48 45 52 65 48
90 90 90 97 94 97 97 94 94 94 97 94 90 90 94 87 87 87 81 87 87 87 81 77 81 77 68 74 77 74 65 55 48 58 55 58 55 52 52 48 58 68 61
90 90 97 97 97 97 97 94 94 94 90 94 94 87 87 84 84 84 87 94 87 90 94 77 68 77 81 71 74 77 77 77 61 65 58 61 52 55 52 45 48 61 48
94 97 97 97 97 97 97 100 90 90 90 90 90 90 90 84 84 81 87 90 94 90 81 87 77 81 81 81 81 77 74 77 71 68 55 58 52 52 55 52 48 48 45
94 97 94 97 97 97 97 94 97 97 94 90 90 90 90 87 84 81 84 84 90 81 84 84 81 77 84 84 81 77 77 71 74 74 58 45 48 65 48 52 48 48 42

GEFSSE_con_cape1000_234.txt.gz
Probability
32 55 81 77 71 71 74 68 71 77 81 81 77 74 74 74 74 77 71 77 71 68 68 71 71 68 74 84 87 87 94 90 94 94 87 84 84 84 87 87 74 58 77
35 58 77 81 77 81 77 74 74 77 74 77 74 71 71 65 68 68 71 68 71 71 71 68 77 77 77 68 81 84 84 90 87 90 87 90 87 90 90 87 65 58 77
42 55 68 77 77 81 81 74 74 74 71 71 71 71 68 68 65 68 68 68 68 71 74 77 71 74 71 68 71 77 84 90 84 81 55 26 58 87 87 84 71 74 77
35 52 68 77 77 77 77 77 71 74 77 77 77 71 74 74 74 74 71 68 71 74 74 74 71 68 71 71 65 74 77 77 71 58 13 16 19 65 77 84 81 71 74
42 55 68 77 74 77 77 74 74 71 71 71 77 77 74 68 77 74 71 71 71 74 68 71 71 71 68 71 74 81 74 61 65 23 10 6 26 65 71 74 74 71 61
42 58 68 81 77 77 77 77 77 77 77 77 74 77 81 71 71 71 74 77 74 68 65 61 68 58 52 61 61 65 55 55 23 6 3 13 32 68 71 61 65 65 65
45 55 65 81 77 77 77 77 77 77 77 77 81 81 81 81 81 74 77 77 74 65 61 61 52 55 45 48 52 61 52 45 3 0 3 10 39 68 68 58 61 65 61
42 58 65 77 77 77 81 77 77 77 77 77 77 81 84 84 77 77 74 65 65 68 68 58 52 52 48 55 55 55 55 45 10 3 6 16 61 68 68 65 68 71 61
48 52 55 65 74 77 77 77 77 81 77 74 81 74 77 77 77 74 77 77 74 77 71 58 52 45 45 52 58 55 55 42 3 0 3 32 68 68 68 65 71 71 61
26 42 42 58 61 65 74 81 81 77 77 81 81 77 74 71 74 77 74 81 77 74 65 52 48 35 39 48 68 65 65 45 3 0 0 45 71 71 68 65 68 61 65
29 32 42 42 42 48 55 77 71 71 77 71 71 81 71 48 45 71 74 81 65 65 65 58 52 52 52 61 65 71 42 3 3 0 6 55 71 71 65 61 58 65 68
26 26 32 32 26 26 42 55 52 58 52 48 45 48 26 16 19 42 65 71 71 68 58 55 68 52 35 10 26 42 10 6 0 0 6 68 71 68 61 58 65 61 61
23 26 19 26 29 19 19 42 39 39 32 29 23 32 26 16 13 19 16 35 39 42 13 23 39 16 10 3 3 0 6 6 0 3 19 68 74 68 65 55 58 61 58
16 29 26 32 29 23 23 26 32 29 32 19 13 19 16 13 10 3 3 6 6 3 3 3 6 10 3 3 3 0 0 0 0 6 13 65 74 71 65 58 55 48 45
13 26 29 35 35 29 29 35 32 19 29 19 19 26 19 13 6 3 3 0 0 6 6 6 3 3 0 0 0 3 0 0 3 3 13 58 71 65 61 52 52 52 48
13 16 32 42 32 32 29 32 23 26 26 26 32 32 23 13 6 6 6 10 6 3 6 10 10 6 6 10 3 0 3 0 0 0 3 35 71 74 65 55 48 45 45
13 13 23 39 26 29 29 35 42 35 26 29 32 35 32 16 16 10 10 10 6 6 10 10 6 6 10 10 10 10 6 0 0 0 0 6 26 68 71 68 58 55 45
16 13 26 45 19 26 45 45 39 35 32 32 19 26 32 35 23 6 13 13 6 10 13 6 6 6 6 6 6 10 10 0 3 0 0 0 3 10 48 68 61 58 55
19 19 26 23 32 39 42 45 55 48 39 35 35 26 29 39 29 16 19 10 6 10 13 6 6 6 6 6 6 10 3 3 6 3 0 0 0 3 3 32 61 65 58
23 16 23 23 29 42 42 52 58 55 39 39 39 42 39 35 29 23 23 16 13 6 10 10 6 6 6 6 6 10 3 6 6 0 3 3 3 3 0 0 26 42 55
35 32 35 26 29 48 48 39 39 45 39 48 42 48 35 42 32 29 35 19 23 16 19 10 6 10 13 6 3 3 0 0 3 6 3 3 3 6 3 3 10 13 19
45 48 45 35 48 52 52 39 39 45 39 45 48 48 48 42 35 35 26 35 29 19 19 19 16 16 13 13 10 6 0 0 0 3 3 0 0 0 6 6 3 10 6
52 52 58 55 61 48 55 55 58 48 42 52 48 48 48 48 39 42 29 32 29 26 26 29 26 23 19 19 16 3 0 0 0 0 0 0 0 0 0 3 3 3 6
52 55 52 58 65 58 55 65 52 48 42 35 32 48 48 48 55 58 52 35 32 26 29 32 35 26 19 26 23 13 3 0 0 0 0 0 0 0 0 0 3 3 3
55 55 55 61 68 58 68 68 52 48 42 32 39 45 48 45 48 61 52 35 35 32 23 35 35 29 26 29 29 23 13 3 0 0 0 0 0 0 0 0 0 0 0
52 55 65 61 68 68 77 71 65 45 42 42 42 42 42 39 42 52 52 45 45 39 42 39 35 35 35 29 23 23 16 16 10 0 3 3 0 0 0 3 3 0 3

GEFSSE_con_cape1000_240.txt.gz
Probability
6 32 65 65 68 71 68 74 74 71 74 74 77 74 71 68 71 71 77 77 71 68 68 68 71 81 84 84 74 71 77 87 87 84 81 74 71 81 84 81 55 42 68
19 52 71 77 65 61 68 65 71 68 71 71 71 65 65 68 68 65 68 74 68 68 68 68 71 84 81 81 81 84 84 77 84 84 81 77 71 77 81 71 48 42 61
29 48 65 71 71 71 65 77 68 65 71 71 71 65 68 68 61 68 71 68 68 65 68 65 61 65 71 81 87 90 87 81 77 77 71 39 61 77 84 77 77 68 68
39 42 65 74 77 71 74 74 77 65 68 71 68 65 71 71 68 71 71 74 65 71 74 68 68 71 71 74 81 81 77 81 77 61 29 29 29 65 71 74 71 68 65
32 55 61 77 81 74 74 74 77 71 68 65 65 65 65 71 71 71 68 65 68 65 71 74 77 77 74 77 84 77 68 71 58 26 10 16 35 65 71 71 71 71 71
35 52 65 74 81 81 77 77 77 77 74 74 61 65 65 61 65 58 61 61 55 55 58 68 71 71 77 77 77 61 58 48 19 10 6 16 42 71 65 68 65 74 61
35 48 61 74 77 77 77 74 74 74 74 74 68 65 68 71 71 71 74 65 58 52 52 58 65 65 61 61 65 61 68 32 10 6 6 16 55 61 65 65 61 68 55
35 48 55 71 77 81 77 77 77 77 77 74 71 71 71 68 71 74 74 61 55 55 52 52 55 52 45 58 55 52 52 29 10 3 6 19 55 58 58 52 58 65 52
35 48 48 52 65 77 77 77 77 77 77 74 74 71 68 65 65 65 68 65 65 58 55 55 55 48 48 58 55 48 42 39 3 10 3 26 58 65 55 58 58 55 55
35 39 35 48 48 55 65 77 77 77 77 74 71 71 68 61 61 61 71 71 68 58 52 48 42 42 48 58 55 61 58 45 3 6 10 35 58 65 58 61 58 55 58
29 26 32 35 35 45 61 61 68 77 74 68 65 71 52 23 23 39 65 68 65 61 58 52 48 52 48 61 68 58 48 16 3 6 10 39 58 68 58 55 55 52 45
23 23 19 19 19 23 48 45 42 48 45 42 32 29 19 10 13 32 52 71 71 71 58 68 65 45 29 16 29 35 26 10 3 3 10 48 58 61 58 55 55 48 39
10 19 16 6 13 13 13 26 23 23 19 16 16 19 13 6 6 6 10 19 23 32 16 16 16 10 13 13 13 13 3 6 6 3 10 48 61 55 55 55 55 55 55
10 13 13 6 3 3 6 19 3 6 6 10 10 13 0 0 3 3 3 6 6 13 10 6 3 3 3 3 3 3 3 3 0 3 16 39 58 58 45 52 48 52 55
13 13 10 6 3 3 3 3 10 3 3 3 3 3 0 0 0 0 0 0 3 3 3 0 0 3 6 3 3 3 3 0 0 6 10 19 61 68 52 55 45 42 48
13 13 13 6 0 0 3 6 6 6 3 0 0 0 0 0 0 0 0 0 3 3 3 0 0 3 0 6 10 10 3 0 6 3 6 19 48 61 55 52 45 48 42
10 13 13 13 6 0 3 3 3 6 3 3 0 0 3 0 0 0 0 0 0 0 0 0 0 3 6 6 10 10 10 10 6 3 6 13 23 39 55 42 48 45 48
3 10 10 23 10 3 3 3 3 3 3 3 3 3 10 10 0 0 3 0 0 0 6 6 6 6 6 10 6 6 10 6 3 0 3 6 13 19 35 45 55 55 45
6 6 6 10 10 3 3 6 3 3 3 3 3 3 6 10 10 3 3 0 3 3 6 6 6 6 6 10 10 10 6 0 3 0 0 0 0 3 16 26 42 42 39
3 3 6 6 3 6 6 6 3 6 6 6 3 3 6 6 19 10 3 3 3 6 6 6 6 6 10 6 6 6 6 3 3 3 0 0 0 0 0 0 19 39 45
6 6 10 6 6 3 6 13 10 10 10 13 6 13 6 19 23 13 13 6 3 6 6 10 6 6 6 3 6 3 0 0 3 3 3 6 6 3 0 0 3 3 29
13 13 6 3 3 3 6 13 16 16 10 13 10 19 19 19 26 23 13 10 10 6 6 13 6 6 10 16 10 3 0 0 0 0 3 6 6 6 6 3 6 3 0
6 6 6 10 10 10 13 16 16 13 10 13 10 13 16 26 29 29 19 19 16 16 19 16 16 13 16 13 13 6 0 0 0 0 0 3 3 3 3 3 3 3 3
10 6 10 10 13 10 10 13 13 13 13 13 10 13 13 19 29 26 23 19 19 16 16 19 29 19 13 19 19 13 3 3 3 3 0 0 0 3 3 0 3 3 3
10 13 13 6 10 10 10 10 6 6 10 10 10 10 16 16 26 32 32 23 19 16 19 16 26 23 16 19 23 19 6 3 0 3 3 3 3 6 0 0 0 3 6
13 13 10 10 10 6 6 3 6 13 10 13 13 16 16 19 19 26 42 23 23 23 29 29 26 23 23 19 23 16 16 13 13 0 3 3 3 3 3 3 6 6 6

GEFSSE_con_cape1000_246.txt.gz
Probability
10 13 58 55 55 55 55 65 68 71 74 77 71 65 71 65 58 68 68 65 74 77 77 71 74 68 77 77 74 81 81 81 71 74 81 74 77 74 68 61 48 42 74
6 23 55 61 65 68 68 68 61 68 74 68 68 68 68 58 65 65 68 65 68 71 81 81 84 81 81 77 74 77 81 81 74 77 71 68 68 74 61 58 58 55 81
13 26 39 65 61 65 68 68 68 65 65 65 65 65 68 58 61 61 65 68 61 68 74 77 74 77 77 77 84 74 81 77 77 68 68 29 42 65 61 55 68 68 71
19 26 39 68 65 61 65 65 61 61 61 58 58 68 65 68 65 68 68 74 71 74 74 77 84 77 74 77 84 87 81 81 77 48 26 13 19 48 58 61 61 61 65
23 32 61 68 65 65 65 65 65 65 58 61 61 61 61 65 74 71 68 71 77 68 71 71 81 84 81 77 77 84 74 65 42 29 16 29 42 48 61 68 58 58 61
26 26 52 74 74 71 74 74 65 61 58 61 58 58 55 58 58 61 71 65 71 65 58 65 68 81 74 77 74 68 58 39 26 10 10 16 39 58 48 61 61 61 68
23 29 39 74 74 71 74 74 71 65 61 61 61 61 58 58 58 55 65 65 65 65 61 55 52 61 58 65 61 58 42 39 19 10 16 19 48 68 55 55 58 58 58
19 26 55 74 74 77 74 74 74 71 68 68 68 65 65 61 55 61 65 55 55 65 55 52 52 52 55 55 55 52 42 39 13 6 19 32 61 65 55 39 42 52 55
19 29 39 61 65 74 71 74 71 74 68 65 65 65 65 65 58 58 58 52 58 58 58 45 48 45 29 45 45 48 32 32 10 16 0 16 52 52 52 32 45 45 52
26 23 29 39 52 55 61 71 74 74 61 61 65 61 58 58 52 48 61 65 58 48 48 45 42 45 35 39 35 35 39 26 16 16 13 26 68 58 42 42 45 55 48
29 35 35 29 39 35 35 48 61 71 68 61 65 55 52 45 32 45 42 52 52 52 55 48 52 48 45 42 39 39 32 16 13 13 29 39 61 48 35 42 42 45 48
29 29 32 32 29 39 23 58 58 55 65 71 71 58 52 61 55 29 48 48 55 48 45 45 52 39 32 26 35 42 26 16 13 16 32 61 52 45 48 45 42 48 35
32 29 29 42 42 39 52 52 55 65 71 68 68 65 71 52 45 35 35 42 48 32 29 42 35 29 26 32 39 23 19 13 10 13 39 61 45 42 45 39 39 35 39
39 29 32 45 52 58 52 58 52 48 52 42 58 48 48 55 52 45 39 39 45 52 58 39 52 29 26 32 29 29 16 23 16 26 61 55 52 48 39 42 42 42 39
42 39 45 45 52 61 74 61 48 55 42 48 65 55 52 42 48 52 65 65 48 55 55 61 48 52 42 32 26 19 16 19 16 23 39 45 52 55 42 35 42 35 39
45 39 52 55 61 77 71 71 58 55 77 58 52 58 52 61 48 52 68 68 55 55 52 58 48 48 45 45 29 26 29 16 26 19 26 48 48 52 39 39 35 39 32
48 45 55 55 55 77 71 71 55 58 61 65 68 68 61 48 61 58 48 52 55 52 65 68 52 45 55 45 39 39 39 35 35 42 26 52 55 39 52 35 35 32 39
52 65 55 42 61 74 81 74 61 65 68 65 68 74 55 55 61 74 55 52 61 52 45 55 58 48 48 52 58 45 45 45 42 45 48 48 58 48 55 39 39 32 32
58 68 65 68 71 74 74 77 71 74 77 71 65 71 74 68 65 65 77 68 65 48 48 39 52 58 65 58 45 55 45 52 52 45 42 48 48 55 55 45 39 42 32
71 71 77 81 74 77 71 71 71 68 68 71 68 77 74 68 61 55 58 74 68 61 68 61 74 77 74 65 35 48 52 52 55 61 48 42 48 39 32 42 39 32 29
74 74 74 71 77 81 74 68 71 65 71 65 65 65 71 61 61 55 48 74 74 71 77 68 65 65 65 68 61 55 42 42 58 61 58 45 45 39 35 45 52 45 39
74 74 74 77 77 77 77 74 74 71 68 68 68 71 68 61 55 52 65 61 71 81 81 77 81 71 65 61 65 61 39 52 61 23 45 48 35 42 42 26 42 42 42
74 74 68 77 77 71 81 68 61 74 71 61 71 71 74 65 68 71 65 65 68 68 74 81 84 77 71 61 55 48 45 23 29 29 35 29 39 39 39 42 42 42 48
77 74 81 81 81 84 81 71 58 74 61 65 68 71 74 71 71 71 71 71 68 71 71 71 74 74 81 71 61 71 52 45 45 35 35 39 35 55 39 29 29 39 42
65 77 77 81 81 81 77 84 84 74 68 58 65 71 68 61 68 68 71 77 77 77 77 74 77 81 68 65 71 61 58 58 32 35 26 29 35 35 42 39 32 39 39
68 71 77 84 84 81 84 81 87 77 74 71 68 71 65 65 61 55 52 68 74 74 77 77 77 74 84 84 74 68 55 48 45 45 52 42 39 32 35 45 42 35 39

GEFSSE_con_cape1000_252.txt.gz
Probability
16 26 58 61 55 55 61 65 58 65 71 71 71 71 65 65 61 68 65 74 77 74 81 87 77 71 81 74 71 71 74 77 68 68 68 61 55 65 68 52 55 42 74
16 29 55 55 58 61 58 55 52 58 65 68 58 61 58 65 61 68 68 74 71 71 81 81 77 81 81 77 68 74 68 71 77 68 61 52 58 58 58 48 55 48 74
26 39 42 65 61 58 65 58 58 68 65 68 58 58 52 61 61 68 71 68 74 71 68 71 74 77 77 74 74 74 61 68 65 65 61 16 32 68 61 52 65 65 68
32 35 42 71 68 65 61 58 55 55 58 58 61 58 58 65 65 68 74 74 74 71 65 71 71 68 71 71 71 65 58 52 65 61 32 13 19 42 68 65 65 65 68
26 42 68 74 74 68 65 61 61 58 58 65 61 65 65 71 71 68 71 65 65 58 65 68 68 65 65 68 65 61 58 55 55 35 23 26 23 48 52 48 58 55 52
26 35 55 74 68 65 61 58 61 65 65 65 68 71 71 68 74 71 71 58 65 52 55 58 48 52 65 61 55 48 42 45 45 29 26 23 23 58 48 45 48 42 48
19 29 48 74 68 68 65 61 65 68 65 55 58 61 68 68 68 74 58 55 58 52 45 52 52 55 52 45 39 42 52 45 35 32 32 35 35 68 58 48 48 45 45
16 29 55 74 74 74 68 65 65 61 65 58 55 55 58 61 61 68 61 58 65 52 42 48 55 42 42 42 39 29 39 35 19 16 35 26 58 68 48 39 42 48 42
13 19 48 58 74 74 74 68 68 65 61 65 65 58 55 61 61 58 52 58 55 45 42 32 32 42 48 48 35 39 42 55 16 13 13 13 61 58 42 32 45 48 39
23 29 42 48 58 55 61 71 71 68 68 65 55 58 55 48 58 58 65 61 55 52 39 35 29 32 45 45 45 45 48 42 13 10 13 23 61 55 45 42 42 39 32
26 35 35 39 48 55 39 39 68 65 65 61 61 61 61 39 42 42 48 55 55 48 42 45 35 45 35 39 45 48 48 26 10 13 16 45 65 55 61 42 45 39 32
32 32 32 39 45 42 29 68 65 55 71 71 65 55 61 55 55 26 45 58 52 48 45 55 61 58 45 26 29 45 26 23 16 10 23 65 68 52 52 45 42 39 42
35 39 29 55 58 48 61 68 68 71 77 71 71 71 71 65 52 45 45 58 58 45 39 39 45 39 29 39 45 29 42 26 19 6 29 68 61 52 58 58 48 42 45
35 35 35 45 61 71 61 65 74 71 74 68 74 74 74 74 61 65 61 61 65 65 68 58 77 68 52 42 42 48 39 29 29 26 35 74 71 58 58 65 58 35 39
48 39 55 68 74 68 84 77 61 74 68 71 81 77 74 77 74 68 71 65 65 61 71 77 71 71 71 58 58 45 39 35 35 35 26 61 71 65 65 52 55 52 42
48 48 58 61 77 87 87 84 81 68 77 71 77 81 77 77 74 74 77 74 65 81 71 71 71 77 81 77 68 58 55 45 42 39 39 45 71 74 68 61 55 48 39
45 55 65 65 74 87 90 90 81 81 74 87 84 77 74 77 84 77 71 77 77 77 77 77 77 77 77 65 65 61 58 58 45 48 39 48 45 71 71 68 52 48 48
55 71 68 48 71 87 90 94 84 77 81 84 84 77 77 84 81 81 77 74 77 77 81 81 77 74 74 77 74 71 68 74 61 52 42 48 45 45 48 61 65 55 55
74 74 81 77 77 81 84 90 94 87 84 84 81 84 81 77 77 77 74 74 74 84 87 61 74 74 77 77 65 61 58 68 71 55 65 55 48 65 45 52 71 52 45
74 77 87 87 90 90 84 90 90 90 87 90 90 87 77 74 71 74 81 77 74 77 87 84 87 81 74 74 48 48 58 71 68 58 61 55 58 55 42 39 35 39 55
71 84 87 94 94 94 90 84 87 87 97 87 90 84 81 81 74 81 74 81 77 71 71 77 74 74 77 71 65 55 68 61 58 61 61 48 39 42 42 45 35 32 23
74 84 84 94 94 94 94 97 97 94 94 90 87 87 81 71 74 65 81 77 77 81 81 84 84 77 65 65 71 65 52 55 42 39 52 52 42 45 45 35 35 39 32
74 84 81 90 94 94 97 94 94 94 94 87 84 84 87 77 71 77 77 77 81 77 81 84 77 74 74 74 77 71 55 45 52 52 45 39 48 45 39 42 42 45 35
71 77 87 94 94 94 97 97 84 87 81 81 90 94 87 84 77 77 77 77 87 87 87 77 81 74 68 71 71 71 68 58 52 52 58 58 58 55 55 26 32 35 35
71 77 87 94 94 90 97 97 97 77 84 74 87 90 90 87 77 71 74 74 77 81 77 74 81 84 77 71 65 68 65 61 55 55 39 48 52 48 45 55 48 32 29
68 81 84 90 94 90 90 94 94 94 87 87 84 84 81 87 77 77 74 74 77 81 74 74 74 74 77 77 77 74 65 55 58 55 48 45 45 48 42 45 39 35 29

GEFSSE_con_cape1000_258.txt.gz
Probability
19 35 65 65 65 65 68 71 68 71 74 74 81 81 74 74 77 81 74 90 94 94 90 90 90 90 87 81 77 74 68 71 68 68 48 58 68 68 71 71 65 45 68
26 35 71 65 61 61 68 65 71 74 71 74 74 81 77 74 81 84 87 87 87 90 94 97 94 87 81 77 81 71 74 71 71 68 55 58 61 74 68 65 52 35 61
32 32 58 74 71 55 58 61 65 65 71 71 71 74 74 77 77 87 87 81 84 94 90 90 87 87 84 74 68 68 65 68 71 61 55 23 39 71 68 65 65 65 61
32 32 48 74 74 65 65 71 68 68 68 65 68 77 77 74 81 87 84 84 90 87 87 84 84 84 71 65 68 65 68 68 65 39 6 13 16 48 61 65 61 61 68
26 32 55 71 71 68 68 65 68 68 68 65 68 68 74 81 84 81 84 87 94 77 68 71 71 68 61 61 61 65 52 58 48 26 3 10 19 55 61 65 61 68 71
26 39 58 71 77 77 77 74 77 68 71 74 74 77 77 74 77 84 87 87 81 77 81 58 61 48 52 55 52 45 55 55 29 10 6 10 13 61 65 55 55 61 65
29 42 61 77 74 68 74 74 74 68 68 68 68 71 74 77 74 81 74 77 77 74 68 61 61 58 52 48 52 58 58 48 19 0 0 10 13 65 61 61 55 61 65
35 48 58 74 74 71 71 77 74 77 71 68 68 71 74 74 68 74 71 77 71 68 65 71 71 58 52 52 45 52 42 42 6 0 0 6 42 65 65 61 58 55 52
35 35 55 61 68 68 74 74 74 77 74 74 65 65 68 71 68 65 68 74 77 65 58 68 65 39 39 45 45 52 58 45 13 3 0 6 52 52 55 52 48 48 45
32 35 32 45 52 58 58 74 71 71 71 71 71 68 61 61 55 58 71 74 61 58 55 58 52 42 45 42 52 55 52 39 10 0 0 6 58 55 52 48 35 39 42
16 26 23 19 23 23 29 58 65 65 61 58 48 61 52 26 32 42 55 65 58 52 48 55 61 61 52 42 55 58 45 13 0 0 0 42 71 65 61 48 39 39 42
13 16 16 19 16 10 19 19 26 32 32 32 32 32 23 16 6 23 39 65 61 61 58 61 58 58 45 16 16 32 19 6 0 0 0 52 71 68 58 52 52 55 42
10 10 6 3 6 6 10 10 13 13 16 13 13 6 6 6 6 6 6 32 32 42 32 39 48 29 23 6 3 3 0 0 0 0 6 58 74 68 61 61 58 61 48
6 10 6 13 10 6 10 10 13 13 13 6 3 16 6 3 6 6 6 13 13 13 13 6 3 6 6 6 3 0 0 0 0 0 6 68 77 61 65 61 68 52 52
6 16 10 13 16 16 13 13 19 13 16 13 13 19 16 10 3 6 3 6 3 3 3 3 3 6 10 10 10 6 0 0 0 0 6 48 71 65 71 68 68 61 48
10 13 13 10 13 13 16 13 13 10 13 13 19 23 23 16 6 10 16 16 16 10 13 10 10 6 6 6 6 6 0 3 0 0 0 26 71 77 74 68 68 58 61
10 16 19 16 16 16 16 13 16 10 13 10 6 13 23 16 10 6 16 13 10 13 16 13 13 23 16 16 13 10 6 3 3 0 0 10 19 68 68 68 71 68 71
10 19 19 26 23 19 26 29 23 19 10 10 10 13 19 26 19 13 16 13 16 19 16 13 23 16 16 13 13 10 3 3 3 0 0 0 3 10 45 71 71 65 65
16 16 19 23 23 29 23 26 26 19 19 13 10 13 19 23 26 16 23 19 26 23 29 29 19 19 23 16 16 13 10 0 3 3 0 0 0 3 3 29 71 65 58
19 13 13 23 19 32 32 19 26 23 26 19 16 16 19 23 26 23 16 16 26 23 23 19 23 16 16 13 19 13 6 6 6 3 3 0 0 0 0 3 23 32 55
16 16 19 26 19 29 32 26 26 26 26 29 29 32 19 29 29 29 26 26 32 32 29 19 19 13 16 19 10 10 0 3 6 3 3 0 0 0 0 3 3 3 13
19 16 16 23 23 23 32 29 32 23 23 29 26 26 29 29 32 32 32 32 29 26 26 19 29 26 19 19 3 3 0 0 3 6 6 3 0 0 3 3 3 3 3
23 26 35 35 32 29 39 29 32 32 32 23 23 23 29 29 29 26 19 23 32 26 23 23 29 26 13 16 10 3 0 0 0 3 3 3 0 6 0 3 3 6 6
29 26 32 42 39 42 42 35 26 26 29 26 26 26 23 23 23 26 23 23 23 32 32 26 29 26 26 26 19 10 10 3 3 3 3 0 3 6 3 6 10 6 6
39 32 42 48 45 42 23 26 26 26 26 29 26 29 26 19 32 29 32 29 29 29 26 26 29 23 26 26 23 19 16 16 10 3 3 3 6 6 3 3 3 6 3
52 42 45 45 45 42 35 35 32 26 23 29 23 26 16 13 16 29 26 19 23 23 26 26 23 19 23 23 13 19 19 16 13 13 6 10 6 3 6 6 6 3 0